TimeEDT,TemperatureF,Dew PointF,Humidity,Sea Level PressureIn,VisibilityMPH,Wind Direction,Wind SpeedMPH,Gust SpeedMPH,PrecipitationIn,Events,Conditions,WindDirDegrees,DateUTC
12:54 AM,46.9,45.0,93,30.23,10.0,Calm,Calm,-,N/A,,Clear,0,2013-09-19 04:54:00
1:54 AM,45.0,43.0,93,30.22,10.0,Calm,Calm,-,N/A,,Clear,0,2013-09-19 05:54:00
2:54 AM,45.0,43.0,93,30.21,10.0,North,-9999.0,-,N/A,,Clear,0,2013-09-19 06:54:00
3:54 AM,46.0,43.0,89,30.21,10.0,Calm,Calm,-,N/A,,Clear,0,2013-09-19 07:54:00
4:54 AM,45.0,43.0,93,30.21,10.0,Calm,Calm,-,N/A,,Clear,0,2013-09-19 08:54:00
5:54 AM,45.0,43.0,93,30.20,10.0,NW,3.5,-,N/A,,Clear,310,2013-09-19 09:54:00
6:54 AM,42.1,41.0,96,30.21,10.0,Calm,Calm,-,N/A,,Clear,0,2013-09-19 10:54:00
7:09 AM,43.0,42.1,97,30.21,2.5,Calm,Calm,-,N/A,,Clear,0,2013-09-19 11:09:00
7:16 AM,45.0,43.0,93,30.21,7.0,Calm,Calm,-,N/A,,Clear,0,2013-09-19 11:16:00
7:54 AM,51.1,46.9,86,30.21,10.0,Calm,Calm,-,N/A,,Clear,0,2013-09-19 11:54:00
8:54 AM,62.1,55.0,78,30.22,10.0,West,3.5,-,N/A,,Clear,270,2013-09-19 12:54:00
9:54 AM,66.9,51.1,57,30.21,10.0,West,3.5,-,N/A,,Clear,260,2013-09-19 13:54:00
10:54 AM,69.1,51.1,53,30.19,10.0,Calm,Calm,-,N/A,,Clear,0,2013-09-19 14:54:00
11:54 AM,71.1,48.9,45,30.19,10.0,NW,5.8,-,N/A,,Clear,320,2013-09-19 15:54:00
12:54 PM,73.9,48.9,41,30.18,10.0,Variable,3.5,-,N/A,,Clear,0,2013-09-19 16:54:00
1:54 PM,73.9,48.9,41,30.16,10.0,Variable,4.6,-,N/A,,Clear,0,2013-09-19 17:54:00
2:54 PM,73.0,52.0,48,30.14,10.0,South,12.7,-,N/A,,Clear,180,2013-09-19 18:54:00
3:54 PM,72.0,53.1,51,30.12,10.0,South,11.5,-,N/A,,Clear,180,2013-09-19 19:54:00
4:54 PM,71.1,54.0,55,30.12,10.0,South,11.5,17.3,N/A,,Clear,180,2013-09-19 20:54:00
5:54 PM,69.1,53.1,57,30.12,10.0,South,8.1,-,N/A,,Clear,170,2013-09-19 21:54:00
6:54 PM,64.9,54.0,68,30.12,10.0,South,6.9,-,N/A,,Clear,180,2013-09-19 22:54:00
7:54 PM,62.1,54.0,75,30.13,10.0,South,5.8,-,N/A,,Clear,190,2013-09-19 23:54:00
8:54 PM,61.0,54.0,78,30.14,10.0,SSW,3.5,-,N/A,,Clear,210,2013-09-20 00:54:00
9:54 PM,59.0,53.1,81,30.14,10.0,SSW,3.5,-,N/A,,Clear,210,2013-09-20 01:54:00
10:54 PM,53.1,50.0,89,30.12,10.0,Calm,Calm,-,N/A,,Clear,0,2013-09-20 02:54:00
11:54 PM,53.1,48.9,86,30.12,10.0,Calm,Calm,-,N/A,,Clear,0,2013-09-20 03:54:00